{"data":{"norad_id":51106,"intl_designator":"2022-005C","name":"STARLINK-3176","alt_names":[],"object_type":"PAYLOAD","status":"ACTIVE","operator":null,"country":"US","launch_date":"2022-01-19","launch_site_code":"AFETR","launch_vehicle":null,"mission":null,"orbit_class":"UNKNOWN","rcs_meters":null,"size_class":null,"mass_kg":null,"dimensions":null,"purposes":["comms"],"wikipedia_slug":null,"has_3d_model":false,"image_url":null,"decayed_at":null,"tle_current":{"epoch":"2026-09-20T00:09:38.348640Z","epoch_age_seconds":91099,"freshness":"FRESH","line1":"1 51106U 22005C   26263.00669385  .00000000  00000+0  10913-4 0  9995","line2":"2 51106  53.1611 128.0740 0001167  80.2234 279.8901 15.35393884258323","mean_motion":15.35393884,"eccentricity":0.0001167,"inclination_deg":53.1611,"raan_deg":128.074,"arg_perigee_deg":80.2234,"mean_anomaly_deg":279.8901,"bstar":1.0913e-5,"rev_number":25832,"period_min":93.787008988763,"perigee_km":458.95281960801,"apogee_km":460.54878262079,"semimajor_km":6837.8878011144,"source":"CELESTRAK","updated_at":"2026-09-20T09:00:39.584200Z"}}}